Tracking 30685 objects as of 17-Jun-2025
HD Live streaming from Space Station
objects crossing your sky now

STARLINK-34112

Track STARLINK-34112 now!
10-day predictions
STARLINK-34112 is classified as:


NORAD ID: 63969
Int'l Code: 2025-099T
Perigee: 486.3 km
Apogee: 489.1 km
Inclination: 43.0 °
Period: 94.2 minutes
Semi major axis: 6858 km
RCS: Unknown
Launch date: May 13, 2025
Source: United States (US)
Launch site: AIR FORCE EASTERN TEST RANGE (AFETR)
Your satellite tracking list
Your tracking list is empty




NASA's NSSDC Master Catalog

Two Line Element Set (TLE):
1 63969U 25099T   25168.16667824  .00056854  00000-0  20086-2 0  9996
2 63969  42.9991 235.3826 0002059 261.7845  49.6926 15.28402288  6638
Source of the keplerian elements: AFSPC